AirNav   ATP
 
 437 users online  

3H4 Hillsboro Municipal Airport
Hillsboro, North Dakota, USA

GOING TO HILLSBORO?


FAA INFORMATION EFFECTIVE 24 MAY 2018

Location

FAA Identifier: 3H4
Lat/Long: 47-21-33.8680N / 097-03-37.4990W
47-21.564467N / 097-03.624983W
47.3594078 / -97.0604164
(estimated)
Elevation: 906.1 ft. / 276.2 m (surveyed)
Variation: 05E (2000)
From city: 3 miles S of HILLSBORO, ND
Time zone: UTC -5 (UTC -6 during Standard Time)
Zip code: 58045

Airport Operations

Airport use: Open to the public
Activation date: 08/1977
Control tower: no
ARTCC: MINNEAPOLIS CENTER
FSS: GRAND FORKS FLIGHT SERVICE STATION
NOTAMs facility: GFK (NOTAM-D service available)
Attendance: MON-FRI 0800-1700
AFT HRS ON CALL 701-400-1113
Wind indicator: lighted
Segmented circle: no
Lights: ACTVT MIRLRY 16/34 & PAPI ON RYS 16 & 34 - CTAF.
Beacon: white-green (lighted land airport)
Operates sunset to sunrise.

Airport Communications

CTAF: 122.9
FARGO APPROACH: 120.4
FARGO DEPARTURE: 120.4

Nearby radio navigation aids

VOR radial/distance  VOR name  Freq  Var
GFKr163/36.1GRAND FORKS VOR/DME114.3009E
FARr338/37.4FARGO VOR/DME116.2009E

 
NDB name  Hdg/Dist  Freq  Var  ID
CROOKSTON209/34.040003ECKN -.-. -.- -.

Airport Services

Fuel available: 100LL
24 HOUR SELF SERVICE CREDIT CARD FUEL AVBL.
Parking: hangars and tiedowns
Airframe service: MAJOR
Powerplant service: MAJOR

Runway Information

Runway 16/34

Dimensions: 3301 x 60 ft. / 1006 x 18 m
Surface: asphalt, in fair condition
Weight bearing capacity: 
Single wheel: 16.5
Runway edge lights: medium intensity
RUNWAY 16  RUNWAY 34
Latitude: 47-21.832328N47-21.296492N
Longitude: 097-03.689462W097-03.560623W
Elevation: 905.5 ft.905.7 ft.
Traffic pattern: leftleft
Runway heading: 166 magnetic, 171 true346 magnetic, 351 true
Markings: nonprecision, in fair conditionnonprecision, in fair condition
Visual slope indicator: 2-light PAPI on left (3.00 degrees glide path)2-light PAPI on left (3.00 degrees glide path)
Runway end identifier lights: nono
Touchdown point: yes, no lightsyes, no lights
Obstructions: none18 ft. road, 700 ft. from runway, 300 ft. left of centerline, 27:1 slope to clear

Airport Ownership and Management from official FAA records

Ownership: Publicly-owned
Owner: HILLSBORO MUNI ARPT AUTH
BOX 242
HILLSBORO, ND 58045
Phone (701) 430-1642
LARRY MUELLER - CHAIRMAN OF THE AIRPORT AUTHORITY
Manager: LARRY MUELLER
BOX 242
HILLSBORO, ND 58045
Phone (701) 430-1642

Airport Operational Statistics

Aircraft based on the field: 41
Single engine airplanes: 40
Multi engine airplanes: 1
    
Aircraft operations: avg 45/day *
55% transient general aviation
43% local general aviation
2% air taxi
<1% military
* for 12-month period ending 05 September 2014

Additional Remarks

FOR SNOW REMOVAL OR WINTER CONDS CALL ARPT 701-400-1113 OR 701-430-1642
AERIAL SPRAYING OPNS MAY-AUG INVOF ARPT.

Instrument Procedures

NOTE: All procedures below are presented as PDF files. If you need a reader for these files, you should download the free Adobe Reader.

NOT FOR NAVIGATION. Please procure official charts for flight.
FAA instrument procedures published for use from 24 May 2018 at 0901Z to 21 June 2018 at 0900Z.

 
IAPs - Instrument Approach Procedures
RNAV (GPS) RWY 16   download (154KB)
RNAV (GPS) RWY 34   download (161KB)
NOTE: Special Take-Off Minimums/Departure Procedures apply   download (223KB)

Other nearby airports with instrument procedures:

D00 - Norman County Ada/Twin Valley Airport (28 nm E)
KFAR - Hector International Airport (28 nm S)
4V4 - Northwood Municipal Airport-Vince Field (31 nm NW)
5N8 - Casselton Robert Miller Regional Airport (31 nm S)
KCKN - Crookston Municipal Airport-Kirkwood Field (34 nm NE)
 
Loc | Ops | Rwys | IFR | FBO | Links
Com | Nav | Svcs | Stats | Notes

Mandan Aero Center
 
Area around 3H4 (Hillsboro Municipal Airport)
 
Road maps at: MapQuest Bing Google
 
Aerial photo
WARNING: Photo may not be current or correct
Aerial photo of 3H4 (Hillsboro Municipal Airport)
Do you have a better or more recent aerial photo of Hillsboro Municipal Airport that you would like to share? If so, please send us your photo.

 
Sectional chart

 
Airport distance calculator
Flying to Hillsboro Municipal Airport? Find the distance to fly.

From to 3H4

Sunrise and sunset
Times for 26-May-2018
 Local
(UTC-5)
 Zulu
(UTC)
Morning civil twilight05:0310:03
Sunrise05:4110:41
Sunset21:1002:10
Evening civil twilight21:4802:48

Current date and time
Zulu (UTC)  26-May-2018 10:38:48
Local (UTC-5)  26-May-2018 05:38:48
 
METAR
KFAR 
27nm S 
260953Z 22005KT 10SM CLR 16/11 A2965 RMK AO2 SLP033 T01610106
KCKN 
34nm NE 
261015Z AUTO 21004KT 10SM CLR 15/11 A2963 RMK AO2
KJKJ 
35nm SE 
261015Z AUTO 20004KT 10SM CLR 17/10 A2966 RMK AO2
KGFK 
36nm N 
260953Z AUTO 22008KT 10SM CLR 14/11 A2961 RMK AO2 SLP024 T01440106
KRDR 
39nm N 
260956Z AUTO 23006KT 10SM CLR 15/11 A2962 RMK AO2 SLP031 T01520108 $
KS32 
43nm W 
261015Z AUTO 26010KT 10SM CLR 15/11 A2969 RMK AO2
KBAC 
46nm SW 
261015Z AUTO 28009KT 10SM CLR 16/16 A2971 RMK AO2
K3N8 
46nm E 
261015Z AUTO 20007KT 10SM CLR 15/11 A2966 RMK AO2 T01460105
TAF
KFAR 
27nm S 
260520Z 2606/2706 25005KT P6SM SKC FM261600 28012KT P6SM FEW060 FM270100 32005KT P6SM SKC FM270300 VRB03KT P6SM SKC
NOTAMs
Click for the latest NOTAMs
NOTAMs are issued by the DoD/FAA and will open in a separate window not controlled by AirNav.

 

 
 

FBO, Fuel Providers, and Aircraft Ground Support

  
 Business Name 
 
 Contact 
 
 Services / Description 
 
Fuel Prices
 
Comments
  
On-Site Aviation, Inc. 701-400-1113
no information available

If you are affiliated with On-Site Aviation, Inc. and would like to show here your services, contact info, web link, logo, and more, click here
100LL
SS $4.62 
 Updated 16-May-2018
 
   write
SS=Self service
Update Fuel Prices
 

Would you like to see your business listed on this page?

 If your business provides an interesting product or service to pilots, flight crews, aircraft, or users of the Hillsboro Municipal Airport, you should consider listing it here.  To start the listing process, click on the button below
 
Add a business
 

Other Pages about Hillsboro Municipal Airport

www.rrv.net/airport
 
Update a link
 
Copyright © AirNav, LLC. All rights reserved. Privacy Policy  Contact